TDRS 8

Last updated on Wed Sep 17 2025 00:02:40 GMT+0000 (Coordinated Universal Time)

1 26388U 00034A 25259.38639116 -.00000206 00000+0 00000+0 0 9991 2 26388 12.2483 33.5741 0002028 137.0152 48.7175 1.00267034 92436
UTC large
Height (km)
Speed (km/s)
/
Latitude / Longitude
Inclination (degrees)
Orbital Period (minutes)
Azimuth
Elevation
Range (km)
Doppler Factor

Next 0 passes for location: London (51.5072 / 0.1276)

Sorry there are no passes over London.